| time (UTC) | temp F | wind direction | speed knots | gust knots | rain 1hr in | rain 24hr in | rain mn in | humidity % | barometer mb |
| 20260503025510 | 49 | 207 | 3.5 | 3.5 | 0.00 | 0.00 | 0.00 | 93 | 1009.2 |
| 20260503025008 | 49 | 208 | 3.5 | 3.5 | 0.00 | 0.00 | 0.00 | 93 | 1009.3 |
| 20260503024504 | 50 | 208 | 3.5 | 3.5 | 0.00 | 0.00 | 0.00 | 93 | 1009.3 |
| 20260503024001 | 50 | 209 | 3.5 | 3.5 | 0.00 | 0.00 | 0.00 | 93 | 1009.3 |
| 20260503023457 | 50 | 197 | 3.5 | 3.5 | 0.00 | 0.00 | 0.00 | 93 | 1009.2 |
| 20260503022954 | 50 | 198 | 3.5 | 3.5 | 0.00 | 0.00 | 0.00 | 92 | 1009.3 |
| 20260503022450 | 50 | 186 | 2.6 | 2.6 | 0.00 | 0.00 | 0.00 | 92 | 1009.3 |
| 20260503021945 | 50 | 189 | 3.5 | 3.5 | 0.00 | 0.00 | 0.00 | 92 | 1009.6 |
| 20260503021442 | 50 | 156 | 3.5 | 3.5 | 0.00 | 0.00 | 0.00 | 92 | 1009.7 |
| 20260503020940 | 50 | 200 | 4.3 | 5.2 | 0.00 | 0.00 | 0.00 | 92 | 1009.6 |
| 20260503020437 | 50 | 166 | 3.5 | 3.5 | 0.00 | 0.00 | 0.00 | 92 | 1009.4 |
| 20260503015934 | 50 | 150 | 1.7 | 1.7 | 0.00 | 0.00 | 0.00 | 92 | 1009.6 |
| 20260503015430 | 50 | 155 | 1.7 | 2.6 | 0.00 | 0.00 | 0.00 | 91 | 1009.8 |
| 20260503014926 | 49 | 150 | 0.9 | 1.7 | 0.00 | 0.00 | 0.00 | 91 | 1009.7 |
| 20260503014418 | 49 | 93 | 0.0 | 0.0 | 0.00 | 0.00 | 0.00 | 91 | 1009.6 |
| 20260503013916 | 49 | 144 | 0.0 | 0.0 | 0.00 | 0.00 | 0.00 | 91 | 1009.7 |
| 20260503013413 | 49 | 144 | 0.9 | 1.7 | 0.00 | 0.00 | 0.00 | 90 | 1009.9 |
| 20260503012910 | 49 | 132 | 0.0 | 0.9 | 0.00 | 0.00 | 0.00 | 90 | 1009.8 |
| 20260503012408 | 49 | 93 | 0.0 | 0.0 | 0.00 | 0.00 | 0.00 | 90 | 1009.8 |
| 20260503011904 | 49 | 92 | 0.0 | 0.0 | 0.00 | 0.00 | 0.00 | 90 | 1009.8 |
| 20260503011401 | 49 | 83 | 0.0 | 0.0 | 0.00 | 0.00 | 0.00 | 90 | 1009.9 |
| 20260503010857 | 49 | 77 | 0.0 | 0.0 | 0.00 | 0.00 | 0.00 | 90 | 1009.8 |
| 20260503010354 | 49 | 82 | 0.0 | 0.0 | 0.00 | 0.00 | 0.00 | 90 | 1009.6 |
| 20260503005851 | 50 | 93 | 0.0 | 0.0 | 0.00 | 0.00 | 0.00 | 90 | 1009.6 |
| 20260503005349 | 50 | 109 | 0.0 | 0.0 | 0.00 | 0.00 | 0.00 | 90 | 1009.6 |
| 20260503004845 | 50 | 106 | 0.9 | 1.7 | 0.00 | 0.00 | 0.00 | 90 | 1009.5 |
| 20260503004342 | 50 | 114 | 0.9 | 1.7 | 0.00 | 0.00 | 0.00 | 90 | 1009.5 |
| 20260503003840 | 50 | 116 | 0.9 | 1.7 | 0.00 | 0.00 | 0.00 | 91 | 1009.6 |
| 20260503003336 | 50 | 153 | 1.7 | 2.6 | 0.00 | 0.00 | 0.00 | 91 | 1009.4 |
| 20260503002832 | 50 | 140 | 3.5 | 3.5 | 0.00 | 0.00 | 0.00 | 91 | 1009.5 |
| 20260503002325 | 50 | 100 | 0.9 | 1.7 | 0.00 | 0.00 | 0.00 | 91 | 1009.7 |
| 20260503001821 | 50 | 123 | 0.9 | 1.7 | 0.00 | 0.00 | 0.00 | 91 | 1009.4 |
| 20260503001317 | 50 | 152 | 1.7 | 2.6 | 0.00 | 0.00 | 0.00 | 91 | 1009.4 |
| 20260503000815 | 50 | 119 | 1.7 | 1.7 | 0.00 | 0.00 | 0.00 | 91 | 1009.5 |
| 20260503000313 | 50 | 183 | 3.5 | 3.5 | 0.00 | 0.00 | 0.00 | 91 | 1009.5 |
| 20260502235809 | 50 | 131 | 2.6 | 2.6 | 0.00 | 0.00 | 0.00 | 91 | 1009.5 |
| 20260502235306 | 50 | 130 | 1.7 | 2.6 | 0.00 | 0.00 | 0.00 | 91 | 1009.3 |
| 20260502234803 | 50 | 189 | 1.7 | 2.6 | 0.00 | 0.00 | 0.00 | 91 | 1009.5 |
| 20260502234300 | 50 | 152 | 2.6 | 3.5 | 0.00 | 0.00 | 0.00 | 91 | 1009.4 |
| 20260502233756 | 50 | 154 | 2.6 | 3.5 | 0.00 | 0.00 | 0.00 | 91 | 1009.4 |
| 20260502233253 | 50 | 155 | 2.6 | 2.6 | 0.00 | 0.00 | 0.00 | 90 | 1009.5 |
| 20260502232749 | 50 | 165 | 2.6 | 2.6 | 0.00 | 0.00 | 0.00 | 90 | 1009.5 |
| 20260502232246 | 50 | 160 | 2.6 | 2.6 | 0.00 | 0.00 | 0.00 | 90 | 1009.6 |
| 20260502231743 | 50 | 175 | 3.5 | 3.5 | 0.00 | 0.00 | 0.00 | 91 | 1009.7 |
| 20260502231240 | 50 | 185 | 3.5 | 3.5 | 0.00 | 0.00 | 0.00 | 91 | 1009.6 |
| 20260502230739 | 50 | 199 | 3.5 | 3.5 | 0.00 | 0.00 | 0.00 | 91 | 1009.5 |
| 20260502230237 | 50 | 190 | 4.3 | 5.2 | 0.00 | 0.00 | 0.00 | 90 | 1009.5 |
| 20260502225733 | 50 | 201 | 5.2 | 5.2 | 0.00 | 0.00 | 0.00 | 90 | 1009.8 |
| 20260502225230 | 50 | 174 | 3.5 | 3.5 | 0.00 | 0.00 | 0.00 | 90 | 1009.7 |
| 20260502224726 | 50 | 199 | 4.3 | 5.2 | 0.00 | 0.00 | 0.00 | 90 | 1009.8 |
| 20260502224223 | 50 | 175 | 4.3 | 5.2 | 0.00 | 0.00 | 0.00 | 90 | 1009.6 |
| 20260502223720 | 50 | 197 | 5.2 | 6.1 | 0.00 | 0.00 | 0.00 | 90 | 1009.6 |
| 20260502223218 | 50 | 189 | 5.2 | 6.1 | 0.00 | 0.00 | 0.00 | 90 | 1009.6 |
| 20260502222716 | 50 | 194 | 6.1 | 7.0 | 0.00 | 0.00 | 0.00 | 90 | 1009.7 |
| 20260502222212 | 50 | 201 | 6.1 | 7.0 | 0.00 | 0.00 | 0.00 | 90 | 1009.6 |
| 20260502221708 | 50 | 209 | 5.2 | 6.1 | 0.00 | 0.00 | 0.00 | 90 | 1009.5 |
| 20260502221205 | 50 | 206 | 6.1 | 7.0 | 0.00 | 0.00 | 0.00 | 90 | 1009.5 |
| 20260502220701 | 50 | 202 | 4.3 | 5.2 | 0.00 | 0.00 | 0.00 | 90 | 1009.4 |
| 20260502220158 | 50 | 211 | 4.3 | 5.2 | 0.00 | 0.00 | 0.00 | 90 | 1009.6 |
| 20260502215655 | 50 | 195 | 5.2 | 5.2 | 0.00 | 0.00 | 0.00 | 91 | 1009.6 |
| 20260502215151 | 50 | 207 | 5.2 | 6.1 | 0.00 | 0.00 | 0.00 | 91 | 1009.7 |
| 20260502214649 | 50 | 195 | 5.2 | 6.1 | 0.00 | 0.00 | 0.00 | 90 | 1009.6 |
| 20260502214146 | 50 | 158 | 5.2 | 7.0 | 0.00 | 0.00 | 0.00 | 90 | 1009.5 |
| 20260502213643 | 50 | 192 | 6.1 | 6.1 | 0.00 | 0.00 | 0.00 | 90 | 1009.3 |
| 20260502213140 | 50 | 178 | 4.3 | 5.2 | 0.00 | 0.00 | 0.00 | 90 | 1009.4 |
| 20260502212639 | 50 | 193 | 7.0 | 7.8 | 0.00 | 0.00 | 0.00 | 89 | 1009.2 |
| 20260502212137 | 50 | 190 | 6.1 | 7.0 | 0.00 | 0.00 | 0.00 | 89 | 1009.3 |
| 20260502211632 | 51 | 176 | 7.8 | 8.7 | 0.00 | 0.00 | 0.00 | 89 | 1009.3 |
| 20260502211130 | 50 | 166 | 7.0 | 7.0 | 0.00 | 0.00 | 0.00 | 89 | 1009.5 |
| 20260502210627 | 50 | 183 | 7.0 | 7.8 | 0.00 | 0.00 | 0.00 | 88 | 1009.1 |
| 20260502210124 | 51 | 209 | 6.1 | 7.8 | 0.00 | 0.00 | 0.00 | 89 | 1009.5 |
| 20260502205620 | 50 | 184 | 9.6 | 9.6 | 0.00 | 0.00 | 0.00 | 88 | 1009.6 |
| 20260502205112 | 50 | 178 | 6.1 | 7.0 | 0.00 | 0.00 | 0.00 | 88 | 1009.6 |
| 20260502204608 | 50 | 187 | 7.8 | 7.8 | 0.00 | 0.00 | 0.00 | 89 | 1009.6 |
| 20260502204106 | 50 | 173 | 7.0 | 7.8 | 0.00 | 0.00 | 0.00 | 89 | 1009.6 |
| 20260502203602 | 50 | 181 | 7.0 | 7.8 | 0.00 | 0.00 | 0.00 | 88 | 1009.9 |
| 20260502203054 | 50 | 189 | 7.8 | 8.7 | 0.00 | 0.00 | 0.00 | 88 | 1009.7 |
| 20260502202550 | 50 | 203 | 6.1 | 7.0 | 0.00 | 0.00 | 0.00 | 88 | 1009.7 |
| 20260502202048 | 50 | 200 | 7.0 | 7.8 | 0.00 | 0.00 | 0.00 | 88 | 1009.7 |
| 20260502201543 | 51 | 194 | 7.0 | 7.0 | 0.00 | 0.00 | 0.00 | 89 | 1009.7 |
| 20260502201035 | 50 | 209 | 7.0 | 7.8 | 0.00 | 0.00 | 0.00 | 88 | 1009.7 |
| 20260502200531 | 51 | 202 | 8.7 | 8.7 | 0.00 | 0.00 | 0.00 | 88 | 1009.8 |
| 20260502200029 | 51 | 194 | 6.1 | 7.0 | 0.00 | 0.00 | 0.00 | 88 | 1009.6 |
| 20260502195526 | 51 | 196 | 9.6 | 11.3 | 0.00 | 0.00 | 0.00 | 88 | 1009.6 |
| 20260502195022 | 51 | 200 | 9.6 | 11.3 | 0.00 | 0.00 | 0.00 | 88 | 1009.8 |
| 20260502194519 | 51 | 201 | 10.4 | 12.2 | 0.00 | 0.00 | 0.00 | 88 | 1009.9 |
| 20260502194015 | 51 | 207 | 11.3 | 12.2 | 0.00 | 0.00 | 0.00 | 88 | 1009.9 |
| 20260502193512 | 51 | 202 | 10.4 | 11.3 | 0.00 | 0.00 | 0.00 | 88 | 1010.0 |
| 20260502193003 | 51 | 179 | 8.7 | 9.6 | 0.00 | 0.00 | 0.00 | 88 | 1009.9 |
| 20260502192459 | 51 | 186 | 9.6 | 11.3 | 0.00 | 0.00 | 0.00 | 89 | 1009.9 |
| 20260502191956 | 51 | 194 | 11.3 | 12.2 | 0.00 | 0.00 | 0.00 | 88 | 1010.1 |
| 20260502191453 | 51 | 192 | 9.6 | 11.3 | 0.00 | 0.00 | 0.00 | 88 | 1010.3 |
| 20260502190951 | 51 | 184 | 9.6 | 9.6 | 0.00 | 0.00 | 0.00 | 88 | 1010.3 |
| 20260502190448 | 51 | 196 | 7.8 | 8.7 | 0.00 | 0.00 | 0.00 | 88 | 1010.1 |
| 20260502185944 | 51 | 184 | 9.6 | 9.6 | 0.00 | 0.00 | 0.00 | 88 | 1010.3 |
| 20260502185439 | 51 | 195 | 9.6 | 9.6 | 0.00 | 0.00 | 0.00 | 88 | 1010.3 |
| 20260502184931 | 51 | 192 | 9.6 | 9.6 | 0.00 | 0.00 | 0.00 | 88 | 1010.7 |
| 20260502184426 | 51 | 198 | 7.8 | 8.7 | 0.00 | 0.00 | 0.00 | 87 | 1010.5 |
| 20260502183923 | 51 | 201 | 9.6 | 11.3 | 0.00 | 0.00 | 0.00 | 88 | 1010.6 |
| 20260502183419 | 51 | 180 | 7.8 | 8.7 | 0.00 | 0.00 | 0.00 | 87 | 1010.5 |
| 20260502182915 | 51 | 193 | 8.7 | 9.6 | 0.00 | 0.00 | 0.00 | 87 | 1010.4 |
| 20260502182410 | 51 | 185 | 9.6 | 11.3 | 0.00 | 0.00 | 0.00 | 86 | 1010.6 |
| 20260502181907 | 52 | 162 | 7.8 | 8.7 | 0.00 | 0.00 | 0.00 | 86 | 1010.5 |
| 20260502181405 | 52 | 175 | 7.8 | 8.7 | 0.00 | 0.00 | 0.00 | 84 | 1010.6 |
| 20260502180903 | 52 | 190 | 10.4 | 11.3 | 0.00 | 0.00 | 0.00 | 81 | 1010.6 |
| 20260502180359 | 52 | 180 | 8.7 | 9.6 | 0.00 | 0.00 | 0.00 | 81 | 1010.8 |
| 20260502170318 | 52 | 185 | 6.1 | 7.0 | 0.00 | 0.00 | 0.00 | 85 | 1010.9 |
| 20260502164306 | 51 | 197 | 8.7 | 8.7 | 0.00 | 0.00 | 0.00 | 86 | 1011.2 |
| 20260502163801 | 51 | 197 | 8.7 | 9.6 | 0.00 | 0.00 | 0.00 | 86 | 1011.1 |
| 20260502163258 | 51 | 198 | 7.8 | 8.7 | 0.00 | 0.00 | 0.00 | 86 | 1010.9 |
| 20260502162756 | 51 | 177 | 8.7 | 11.3 | 0.00 | 0.00 | 0.00 | 86 | 1011.0 |
| 20260502162253 | 51 | 202 | 10.4 | 12.2 | 0.00 | 0.00 | 0.00 | 86 | 1011.2 |
| 20260502161749 | 51 | 194 | 10.4 | 12.2 | 0.00 | 0.00 | 0.00 | 84 | 1011.0 |
| 20260502161245 | 51 | 199 | 12.2 | 13.0 | 0.00 | 0.00 | 0.00 | 85 | 1010.9 |
| 20260502160743 | 51 | 201 | 12.2 | 13.0 | 0.00 | 0.00 | 0.00 | 83 | 1011.2 |
| 20260502160242 | 51 | 198 | 11.3 | 12.2 | 0.00 | 0.00 | 0.00 | 84 | 1011.2 |
| 20260502152200 | 52 | 191 | 8.7 | 9.6 | 0.00 | 0.00 | 0.00 | 85 | 1011.2 |
| 20260502151658 | 51 | 194 | 7.8 | 7.8 | 0.00 | 0.00 | 0.00 | 86 | 1011.5 |
| 20260502151155 | 51 | 178 | 7.0 | 7.8 | 0.00 | 0.00 | 0.00 | 86 | 1011.7 |
| 20260502150652 | 52 | 204 | 8.7 | 8.7 | 0.00 | 0.00 | 0.00 | 83 | 1011.8 |
| 20260502150148 | 54 | 199 | 9.6 | 9.6 | 0.00 | 0.00 | 0.00 | 82 | 1011.2 |
| 20260502140107 | 54 | 181 | 4.3 | 5.2 | 0.00 | 0.00 | 0.00 | 78 | 1011.4 |
| 20260502130531 | 52 | 13 | 1.7 | 1.7 | 0.00 | 0.00 | 0.00 | 79 | 1012.1 |
| 20260502123515 | 51 | 103 | 1.7 | 1.7 | 0.00 | 0.00 | 0.00 | 81 | 1011.9 |
| 20260502123011 | 51 | 244 | 2.6 | 2.6 | 0.00 | 0.00 | 0.00 | 81 | 1012.1 |
| 20260502122508 | 51 | 232 | 2.6 | 2.6 | 0.00 | 0.00 | 0.00 | 81 | 1012.0 |
| 20260502122005 | 51 | 207 | 5.2 | 6.1 | 0.00 | 0.00 | 0.00 | 81 | 1011.9 |
| 20260502121502 | 51 | 214 | 5.2 | 6.1 | 0.00 | 0.00 | 0.00 | 81 | 1011.8 |
| 20260502120959 | 50 | 204 | 4.3 | 5.2 | 0.00 | 0.00 | 0.00 | 81 | 1011.6 |
| 20260502120456 | 50 | 202 | 4.3 | 5.2 | 0.00 | 0.00 | 0.00 | 81 | 1011.7 |
| 20260502115451 | 50 | 209 | 4.3 | 5.2 | 0.00 | 0.00 | 0.00 | 81 | 1011.5 |
| 20260502114946 | 50 | 211 | 5.2 | 6.1 | 0.00 | 0.00 | 0.00 | 81 | 1011.5 |
| 20260502114443 | 50 | 197 | 5.2 | 7.0 | 0.00 | 0.00 | 0.00 | 81 | 1011.5 |
| 20260502113940 | 50 | 217 | 5.2 | 6.1 | 0.00 | 0.00 | 0.00 | 81 | 1011.5 |
| 20260502113438 | 50 | 207 | 5.2 | 7.0 | 0.00 | 0.00 | 0.00 | 81 | 1011.5 |
| 20260502112936 | 50 | 212 | 5.2 | 6.1 | 0.00 | 0.00 | 0.00 | 81 | 1011.7 |
| 20260502112433 | 50 | 226 | 5.2 | 6.1 | 0.00 | 0.00 | 0.00 | 81 | 1011.4 |
| 20260502111931 | 50 | 201 | 6.1 | 7.0 | 0.00 | 0.00 | 0.00 | 81 | 1011.2 |
| 20260502111427 | 50 | 214 | 5.2 | 6.1 | 0.00 | 0.00 | 0.00 | 81 | 1011.0 |
| 20260502110925 | 50 | 197 | 7.0 | 7.0 | 0.00 | 0.00 | 0.00 | 81 | 1011.3 |
| 20260502110423 | 50 | 198 | 6.1 | 7.0 | 0.00 | 0.00 | 0.00 | 81 | 1011.3 |
| 20260502105920 | 49 | 193 | 3.5 | 5.2 | 0.00 | 0.00 | 0.00 | 79 | 1011.2 |
| 20260502105417 | 49 | 200 | 2.6 | 2.6 | 0.00 | 0.00 | 0.00 | 79 | 1011.3 |
| 20260502104916 | 49 | 200 | 3.5 | 3.5 | 0.00 | 0.00 | 0.00 | 79 | 1011.2 |
| 20260502104413 | 49 | 208 | 3.5 | 3.5 | 0.00 | 0.00 | 0.00 | 79 | 1011.2 |
| 20260502103910 | 49 | 223 | 5.2 | 6.1 | 0.00 | 0.00 | 0.00 | 80 | 1011.2 |
| 20260502103408 | 49 | 201 | 3.5 | 3.5 | 0.00 | 0.00 | 0.00 | 79 | 1011.1 |
| 20260502102904 | 49 | 226 | 4.3 | 5.2 | 0.00 | 0.00 | 0.00 | 79 | 1011.1 |
| 20260502102400 | 49 | 200 | 4.3 | 5.2 | 0.00 | 0.00 | 0.00 | 78 | 1011.0 |
| 20260502101858 | 49 | 189 | 2.6 | 2.6 | 0.00 | 0.00 | 0.00 | 77 | 1011.1 |
| 20260502101356 | 49 | 207 | 2.6 | 3.5 | 0.00 | 0.00 | 0.00 | 77 | 1010.8 |
| 20260502100854 | 49 | 210 | 3.5 | 3.5 | 0.00 | 0.00 | 0.00 | 77 | 1010.9 |
| 20260502100353 | 49 | 196 | 2.6 | 2.6 | 0.00 | 0.00 | 0.00 | 77 | 1010.9 |
| 20260502091327 | 49 | 220 | 5.2 | 7.0 | 0.00 | 0.00 | 0.00 | 74 | 1010.7 |
| 20260502090824 | 49 | 210 | 7.0 | 7.0 | 0.00 | 0.00 | 0.00 | 75 | 1010.8 |
| 20260502090321 | 49 | 206 | 6.1 | 6.1 | 0.00 | 0.00 | 0.00 | 75 | 1010.7 |
| 20260502071216 | 50 | 206 | 3.5 | 3.5 | 0.00 | 0.00 | 0.00 | 73 | 1010.8 |
| 20260502070714 | 51 | 199 | 3.5 | 3.5 | 0.00 | 0.00 | 0.00 | 71 | 1010.9 |
| 20260502070211 | 51 | 207 | 3.5 | 3.5 | 0.00 | 0.00 | 0.00 | 70 | 1010.8 |
| 20260502065710 | 51 | 236 | 1.7 | 2.6 | 0.00 | 0.00 | 0.00 | 70 | 1010.7 |
| 20260502065207 | 51 | 260 | 4.3 | 5.2 | 0.00 | 0.00 | 0.00 | 70 | 1010.5 |
| 20260502064706 | 51 | 232 | 4.3 | 5.2 | 0.00 | 0.00 | 0.00 | 70 | 1010.6 |
| 20260502064202 | 51 | 197 | 5.2 | 6.1 | 0.00 | 0.00 | 0.00 | 70 | 1010.7 |
| 20260502063700 | 52 | 288 | 5.2 | 7.8 | 0.00 | 0.00 | 0.00 | 69 | 1010.7 |
| 20260502063158 | 52 | 271 | 9.6 | 9.6 | 0.00 | 0.00 | 0.00 | 69 | 1010.6 |
| 20260502062655 | 52 | 263 | 7.0 | 7.8 | 0.00 | 0.00 | 0.00 | 68 | 1010.9 |
| 20260502062152 | 52 | 247 | 8.7 | 8.7 | 0.00 | 0.00 | 0.00 | 69 | 1010.9 |
| 20260502061651 | 52 | 265 | 6.1 | 7.0 | 0.00 | 0.00 | 0.00 | 70 | 1010.9 |
| 20260502061148 | 52 | 256 | 7.0 | 8.7 | 0.00 | 0.00 | 0.00 | 69 | 1010.7 |
| 20260502060642 | 52 | 247 | 7.8 | 8.7 | 0.00 | 0.00 | 0.00 | 68 | 1010.6 |
| 20260502060139 | 52 | 265 | 10.4 | 13.0 | 0.00 | 0.00 | 0.00 | 66 | 1010.7 |
| 20260502055637 | 52 | 218 | 9.6 | 11.3 | 0.00 | 0.00 | 0.00 | 66 | 1010.6 |
| 20260502055134 | 52 | 250 | 8.7 | 9.6 | 0.00 | 0.00 | 0.00 | 67 | 1010.8 |
| 20260502054633 | 52 | 249 | 10.4 | 13.0 | 0.00 | 0.00 | 0.00 | 67 | 1010.8 |
| 20260502054130 | 52 | 262 | 10.4 | 12.2 | 0.00 | 0.00 | 0.00 | 64 | 1010.9 |
| 20260502053627 | 52 | 251 | 9.6 | 11.3 | 0.00 | 0.00 | 0.00 | 68 | 1010.8 |
| 20260502053125 | 52 | 215 | 11.3 | 13.0 | 0.00 | 0.00 | 0.00 | 65 | 1010.9 |
| 20260502052623 | 52 | 252 | 8.7 | 9.6 | 0.00 | 0.00 | 0.00 | 66 | 1010.9 |
| 20260502052121 | 52 | 241 | 7.0 | 7.8 | 0.00 | 0.00 | 0.00 | 64 | 1011.0 |
| 20260502051619 | 52 | 242 | 4.3 | 5.2 | 0.00 | 0.00 | 0.00 | 64 | 1010.9 |
| 20260502051117 | 52 | 245 | 6.1 | 7.0 | 0.00 | 0.00 | 0.00 | 65 | 1011.1 |
| 20260502050612 | 52 | 253 | 5.2 | 6.1 | 0.00 | 0.00 | 0.00 | 65 | 1010.9 |
| 20260502050109 | 52 | 244 | 4.3 | 5.2 | 0.00 | 0.00 | 0.00 | 63 | 1010.9 |
| 20260502045605 | 52 | 91 | 2.6 | 3.5 | 0.00 | 0.00 | 0.00 | 65 | 1011.0 |
| 20260502045103 | 52 | 278 | 3.5 | 5.2 | 0.00 | 0.00 | 0.00 | 65 | 1011.1 |
| 20260502044559 | 52 | 313 | 2.6 | 3.5 | 0.00 | 0.00 | 0.00 | 64 | 1010.9 |
| 20260502044056 | 52 | 215 | 2.6 | 3.5 | 0.00 | 0.00 | 0.00 | 63 | 1011.1 |
| 20260502043554 | 52 | 99 | 2.6 | 3.5 | 0.00 | 0.00 | 0.00 | 65 | 1011.2 |
| 20260502043050 | 52 | 190 | 1.7 | 2.6 | 0.00 | 0.00 | 0.00 | 66 | 1011.2 |
| 20260502042544 | 52 | 225 | 1.7 | 2.6 | 0.00 | 0.00 | 0.00 | 65 | 1011.1 |
| 20260502042043 | 52 | 48 | 1.7 | 1.7 | 0.00 | 0.00 | 0.00 | 65 | 1011.1 |
| 20260502041540 | 52 | 270 | 3.5 | 3.5 | 0.00 | 0.00 | 0.00 | 65 | 1011.0 |
| 20260502041037 | 52 | 263 | 3.5 | 3.5 | 0.00 | 0.00 | 0.00 | 66 | 1011.3 |
| 20260502040533 | 52 | 109 | 2.6 | 2.6 | 0.00 | 0.00 | 0.00 | 66 | 1011.1 |
| 20260502040031 | 52 | 308 | 3.5 | 3.5 | 0.00 | 0.00 | 0.00 | 66 | 1011.2 |
| 20260502035526 | 52 | 271 | 2.6 | 2.6 | 0.00 | 0.00 | 0.00 | 67 | 1011.3 |
| 20260502035024 | 52 | 278 | 5.2 | 7.0 | 0.00 | 0.00 | 0.00 | 66 | 1011.4 |
| 20260502034522 | 52 | 214 | 2.6 | 2.6 | 0.00 | 0.00 | 0.00 | 65 | 1011.2 |
| 20260502034020 | 52 | 334 | 3.5 | 3.5 | 0.00 | 0.00 | 0.00 | 65 | 1011.3 |
| 20260502033518 | 52 | 324 | 2.6 | 3.5 | 0.00 | 0.00 | 0.00 | 66 | 1011.2 |
| 20260502033015 | 52 | 256 | 3.5 | 6.1 | 0.00 | 0.00 | 0.00 | 66 | 1011.1 |
| 20260502032511 | 53 | 221 | 5.2 | 7.0 | 0.00 | 0.00 | 0.00 | 67 | 1011.1 |
| 20260502032008 | 53 | 252 | 2.6 | 3.5 | 0.00 | 0.00 | 0.00 | 66 | 1011.1 |
| 20260502031506 | 53 | 68 | 3.5 | 3.5 | 0.00 | 0.00 | 0.00 | 66 | 1011.2 |
| 20260502031004 | 53 | 320 | 1.7 | 2.6 | 0.00 | 0.00 | 0.00 | 66 | 1011.3 |
| 20260502030502 | 53 | 271 | 1.7 | 2.6 | 0.00 | 0.00 | 0.00 | 66 | 1011.3 |
| 20260502030000 | 53 | 297 | 1.7 | 2.6 | 0.00 | 0.00 | 0.00 | 66 | 1011.2 |